Location: Quedlinburg
(51.7921°N, 11.1414°E)
Time: 05:29:42
(UTC+02:00)

STRAND 1 - Pass Details

Date: 21 March 2026
Orbit: 761 x 775 km, 98.4° (Epoch: 16 April)

Event Time Altitude Azimuth Distance (km) Brightness Sun altitude
Rises 19:25:46 0° 9° (N) 3,241 ? -9.3°
Reaches altitude 10° 19:28:16 10° 360° (N) 2,309 ? -9.7°
Maximum altitude 19:32:45 33° 298° (WNW) 1,271 ? -10.4°
Drops below altitude 10° 19:37:14 10° 235° (SW) 2,294 ? -11.0°
Sets 19:39:42 0° 226° (SW) 3,216 ? -11.4°
